RH
45 38 34 36 33 33 30 28 26 26 23 20 18 15 13 9 7 6 5 5 5 6 7 8 11 15 17 29 35 44 32 33 48 51 44 30 24 26 25 20 20 20 22 27 29 28 26
40 39 38 36 34 32 28 27 27 26 25 20 19 17 15 11 8 7 7 7 7 6 6 6 8 9 17 21 30 45 49 36 42 59 50 38 29 27 26 24 23 23 24 28 30 29 27
38 38 38 36 34 31 32 31 29 29 26 24 21 17 13 11 12 10 8 8 7 6 6 6 7 7 12 10 30 43 46 45 42 58 50 47 38 34 31 30 27 25 25 28 30 30 28
40 39 37 36 34 36 36 34 31 27 26 23 19 15 12 12 13 10 9 8 7 7 6 6 6 13 15 12 31 46 54 53 57 60 48 46 45 41 34 30 28 26 25 29 31 33 32
45 44 39 38 37 37 35 32 29 29 26 20 17 16 13 12 12 10 9 8 9 9 9 8 14 17 15 19 35 47 55 56 61 68 53 44 44 38 36 33 33 32 28 30 33 34 35
42 42 41 39 37 34 31 30 27 27 24 22 22 18 15 13 11 11 10 10 15 15 18 20 23 24 22 20 37 54 57 60 65 78 52 47 49 42 36 36 34 34 34 32 33 37 35
48 42 38 39 40 35 32 30 30 28 25 21 20 19 16 14 12 14 14 22 24 31 24 18 18 21 17 25 32 53 64 64 66 76 68 40 51 48 41 40 39 39 40 38 37 36 35
46 46 46 42 36 35 30 36 33 28 24 25 24 20 17 14 14 16 28 31 28 29 26 18 18 17 16 16 23 43 66 67 71 79 79 56 46 48 52 50 46 43 39 38 38 36 35
45 44 44 44 44 35 38 39 33 30 26 23 23 20 18 16 17 25 31 34 32 37 34 19 18 19 21 21 26 38 58 73 78 87 83 69 58 60 54 55 52 49 45 42 41 40 38
47 48 44 44 44 42 40 40 39 38 31 30 28 23 22 18 28 32 37 31 36 39 41 29 23 26 27 25 28 28 54 78 83 87 88 74 67 66 63 57 59 52 47 43 44 42 41
39 40 43 42 42 44 42 40 40 39 35 38 29 26 24 21 29 34 35 33 37 44 37 24 27 22 26 27 26 34 42 62 75 78 76 75 61 56 63 62 62 55 52 48 47 43 45
31 33 31 35 36 39 43 42 42 41 38 39 30 28 24 30 32 38 32 35 42 59 39 25 23 24 23 25 31 26 36 53 62 83 78 69 67 65 59 54 59 55 54 53 52 46 50
30 30 27 26 27 28 32 37 41 45 43 39 34 37 28 33 37 40 32 39 51 38 24 29 26 22 22 25 32 34 34 39 53 66 78 74 68 66 65 58 59 51 54 57 57 53 46
25 28 27 27 31 30 29 33 38 43 44 42 38 37 32 35 35 38 39 45 47 27 26 26 22 16 18 24 38 41 43 43 44 61 70 68 70 69 65 63 56 54 54 54 58 55 45
27 28 34 35 34 30 31 32 41 42 37 40 43 40 40 41 36 38 53 52 35 32 31 30 18 15 21 29 29 40 45 51 48 50 61 58 50 55 58 66 60 54 53 53 53 64 57
31 39 40 39 38 39 39 38 39 42 40 40 42 52 49 47 41 48 62 46 36 36 34 27 24 24 30 35 30 36 54 53 53 51 56 58 57 53 60 64 66 61 57 55 56 62 64
36 41 47 46 48 46 42 40 45 45 49 44 40 46 51 48 50 61 65 47 37 39 37 35 30 33 28 35 35 37 65 67 56 53 57 60 63 59 57 60 63 65 61 62 55 55 59
42 46 49 51 52 50 44 46 45 54 58 55 46 55 52 45 59 60 59 47 43 41 40 32 32 36 36 37 42 40 43 52 53 60 68 54 61 60 71 58 57 62 63 62 65 74 58
50 55 55 51 50 55 63 63 54 54 69 67 54 54 56 69 65 58 53 48 40 42 37 36 34 34 36 38 41 40 43 48 55 65 71 67 53 62 66 74 58 58 64 67 65 65 77
59 58 61 61 66 71 74 71 64 68 73 73 71 71 54 65 60 59 53 52 45 42 41 37 41 40 42 40 44 47 49 48 57 73 72 67 68 57 53 57 54 55 60 63 60 69 66
48 46 48 51 62 66 72 75 69 74 75 86 76 65 70 68 56 58 54 60 48 46 46 42 50 46 47 48 45 48 47 50 50 69 73 79 82 82 65 66 57 53 59 57 63 63 69
42 45 41 50 59 66 82 93 86 81 91 97 77 65 61 66 71 61 52 60 56 59 52 55 56 53 48 48 52 53 53 49 53 64 77 77 85 97 78 70 70 64 58 58 59 61 63
42 33 33 44 49 58 70 87 90 87 89 97 82 72 75 73 65 72 71 55 48 55 63 68 70 63 60 66 64 63 56 59 64 66 79 76 75 90 93 74 67 71 62 62 63 60 60
74 80 77 59 44 46 57 71 87 89 89 90 87 80 81 66 59 65 60 64 59 60 55 58 66 63 79 80 71 66 59 56 58 58 67 74 75 71 79 79 89 60 53 56 60 63 62
97 98 98 96 87 52 50 66 76 79 81 85 91 84 72 70 59 64 72 69 63 70 68 80 82 72 79 80 77 74 71 68 60 55 65 67 71 80 81 68 56 53 51 57 62 65 63
98 99 99 99 98 95 63 65 69 75 78 78 84 88 85 79 65 57 52 54 69 84 78 73 87 88 84 94 97 81 77 65 65 53 54 64 65 75 73 71 71 59 58 51 53 65 69
97 98 98 99 98 98 96 72 72 75 77 81 80 85 91 82 60 74 67 55 62 80 88 86 88 94 94 98 92 83 76 81 81 72 60 60 60 62 69 67 59 60 64 53 46 61 70
93 93 95 98 99 98 96 95 82 79 81 87 78 82 86 82 68 56 76 75 80 86 91 97 96 96 97 94 85 81 83 82 77 81 69 60 63 58 56 57 59 57 50 48 60 59 60
94 93 94 95 96 99 96 95 93 85 81 89 88 85 93 91 81 77 69 71 90 96 98 94 95 95 87 82 79 87 85 86 78 90 76 65 51 55 47 50 62 66 69 72 70 63 55